User: anonymous   Login
Location: Ay?beleni
(36.6500°N, 30.3000°E)
Time: 02:01:55
(UTC+00:00)
Language:

Cosmos 1340 Rocket - Orbit

View from above orbital plane
View from above orbital plane
View from above satellite
View from above satellite

Ground track
Ground track

The orbit data is extracted from the following two-line orbital elements,

1 13068U 82013B   20192.52551202 -.00000066 +00000-0 -59109-5 0  9991
2 13068 081.2013 024.0455 0020391 216.0306 143.9545 15.07438663091844
Epoch (UTC): 10 July 2020 12:36:44
Eccentricity: 0.0020391
inclination: 81.2013°
perigee height: 530 km
apogee height: 558 km
right ascension of ascending node: 24.0455°
argument of perigee: 216.0306°
revolutions per day: 15.07438663
mean anomaly at epoch: 143.9545°
orbit number at epoch: 9184

The dashed part of the orbit path shows where the satellite is in the earth's shadow,  

DLR